Location: Rooftop Observatory
(39.0308°N, 87.1711°W)
Time: 10:57:56
(UTC-05:00)

Daily predictions for brighter satellites

Satellite Brightness Start Highest point End
(mag) Time Altitude Azimuth Time Altitude Azimuth Time Altitude Azimuth
Cosmos 389 Rocket 4.5 20:31:40 10° NNW 20:34:46 31° W 20:37:52 10° SSW
H-2A R/B 2.8 20:33:07 10° S 20:36:48 77° WSW 20:40:32 10° NNW
Cosmos 1461 4.2 20:34:32 10° SW 20:39:06 52° NW 20:43:34 10° NNE
Okean 1-7 3.5 20:36:19 10° NNW 20:40:35 63° W 20:44:50 10° S
Resurs 01 Rocket 4.3 20:40:24 10° SW 20:43:41 20° W 20:46:59 10° NW
Cosmos 2056 Rocket 3.5 20:42:30 10° S 20:47:36 63° ESE 20:52:40 10° NNE
CENTAUR R/B 3.2 20:41:16 10° NNW 20:49:12 86° ENE 20:57:34 10° SSE
Cosmos 1371 Rocket 4.1 20:44:28 10° SSW 20:49:49 90° NW 20:55:07 10° NNE
Sich 1 Rocket 4.3 20:49:43 10° SSE 20:53:55 37° E 20:58:08 10° NNE
Cosmos 1674 Rocket 4.0 20:50:16 10° N 20:54:33 44° E 20:58:47 10° SSE
NOSS 2-2 (D) 3.7 20:58:49 10° SW 21:02:53 76° NW 21:07:35 10° NNE
COSMOS 2406 3.2 20:58:25 10° NNW 21:04:12 82° ENE 21:09:46 11° SSE
ATLAS 5 CENTAUR R/B 2.5 20:58:53 10° NNW 21:04:59 87° ENE 21:10:53 13° SSE
SL-27 R/B 2.7 21:02:47 10° N 21:06:25 57° ENE 21:09:10 16° SSE
COS B Rocket 4.1 21:03:53 10° NNE 21:07:39 33° E 21:10:09 16° SE
SJ-11-01 4.4 21:04:59 10° S 21:09:44 82° WSW 21:14:31 10° NNW
ALOS 4.1 21:07:55 10° SSW 21:11:59 29° W 21:16:05 10° NW
PSLV R/B 4.3 21:12:35 20° ESE 21:13:43 25° ENE 21:16:14 10° NNE
COSMOS 2487 4.3 21:11:53 10° NNE 21:14:28 18° ENE 21:15:53 15° E
NOSS 2-2 (C) 4.4 21:13:38 10° SW 21:17:39 53° NW 21:22:17 10° NNE
Coronas F rocket 3.4 21:15:29 10° SW 21:17:51 29° WNW 21:20:13 10° NNW
Cosmos 2278 Rocket 2.7 21:12:50 10° S 21:18:01 38° ESE 21:23:13 10° NE
Cosmos 1238 Rocket 3.5 21:16:07 10° NNE 21:18:56 27° E 21:20:11 22° ESE
EO 1 Delta rocket 4.3 21:13:38 10° NNE 21:19:56 68° E 21:24:57 10° S
Meteor 1-10 Rocket 4.4 21:15:41 10° N 21:21:32 81° W 21:27:13 10° S
Cosmos 1844 3.7 21:15:54 10° S 21:21:33 64° ESE 21:27:18 10° NNE
SPOT 5 3.2 21:17:34 15° SSE 21:21:47 60° ENE 21:27:04 10° N
Cosmos 1975 Rocket 4.1 21:19:45 10° NNE 21:23:30 28° ENE 21:25:16 21° ESE
Cosmos 1825 2.7 21:21:19 20° SSE 21:23:34 40° E 21:27:09 10° NNE
ISS -2.6 21:21:09 10° SSW 21:24:05 31° SE 21:25:57 17° E
Envisat 3.0 21:20:01 11° SSE 21:24:49 89° ENE 21:29:56 10° NNW
Cosmos 1844 Rocket 2.7 21:20:36 10° SSW 21:26:16 86° WNW 21:31:57 10° NNE
Cosmos 1862 3.4 21:24:04 15° S 21:27:17 55° E 21:31:17 10° NNE
Terra 3.9 21:25:43 11° E 21:27:30 13° ENE 21:29:38 10° NE
YAOGAN 6 3.1 21:29:22 27° SE 21:30:44 41° ENE 21:34:04 10° N
deb Chang Zheng 4 3.9 21:27:15 10° N 21:31:39 72° WNW 21:36:04 10° SSW
Cosmos 1408 2.8 21:29:47 23° SSE 21:31:47 50° E 21:35:20 10° NNE
Cosmos 1908 Rocket 3.5 21:27:25 10° S 21:31:48 77° E 21:36:14 10° N
ERBS 3.2 21:28:41 10° NW 21:32:00 42° SW 21:33:42 23° S
Cosmos 2154 Rocket 3.9 21:26:56 10° S 21:33:08 76° E 21:39:20 10° N
TIMED 4.4 21:29:48 10° SSW 21:34:09 77° ESE 21:38:32 10° NNE
Cosmos 1733 Rocket 4.4 21:31:48 10° SSW 21:35:57 40° WNW 21:40:06 10° N
H-2A R/B 3.6 21:34:39 17° E 21:36:55 22° ENE 21:40:55 10° NNE
MetOp-A 4.1 21:34:31 20° SSE 21:38:14 72° ENE 21:43:35 10° N
Cosmos 1378 Rocket 3.5 21:33:58 10° N 21:38:16 66° E 21:40:33 26° SSE
Cosmos 2082 Rocket 3.8 21:34:12 10° N 21:38:26 21° NE 21:41:15 15° E
USA 245 3.5 21:40:07 33° E 21:40:45 37° ENE 21:44:12 10° N
PSLV R/B 3.8 21:39:31 10° W 21:42:50 44° SSW 21:43:37 37° SSE
Cosmos 1242 Rocket 3.5 21:40:10 10° NNE 21:43:26 30° ENE 21:43:57 29° E
GPS 2-05 Rocket1 3.7 21:40:14 10° SW 21:43:27 33° S 21:43:27 33° S
Cosmos 407 Rocket 3.7 21:39:39 10° NNW 21:44:55 74° WSW 21:48:29 21° S
BREEZE-M DEB (TANK) 3.7 21:44:14 10° W 21:46:17 27° SSW 21:47:09 24° S
ERS-1 Rocket 4.4 21:43:30 10° SSW 21:48:05 35° W 21:52:42 10° NNW
Cosmos 2084 3.0 21:45:01 10° SSW 21:48:52 78° ESE 21:52:42 10° NE
Cosmos 1452 Rocket 3.6 21:45:26 10° SSW 21:50:42 82° WNW 21:56:00 10° NNE
Cosmos 2297 4.3 21:48:47 28° SE 21:50:42 35° ESE 21:55:52 10° NE
Meteor 1-27 Rocket 3.8 21:45:33 10° NNW 21:51:07 77° W 21:55:04 19° S
SPOT 1/Viking Rocket 3.6 21:49:15 29° SE 21:51:52 64° ENE 21:57:01 10° N
SL-08 RB Rocket 4.2 21:51:07 32° ESE 21:52:39 44° ENE 21:57:03 10° N
Cosmos 1782 4.5 21:52:26 10° NNW 21:56:01 32° W 21:59:29 11° SSW
Cosmos 1140 Rocket 3.7 21:51:22 10° N 21:56:24 52° ENE 21:58:17 34° SE
Cosmos 1606 3.6 21:57:37 10° NNW 22:01:25 46° W 22:03:34 22° SSW
H-2A R/B 3.5 21:58:19 13° SSW 22:01:44 33° W 22:05:37 10° NNW
NOAA 11 4.2 21:59:38 33° SSE 22:02:09 68° ENE 22:07:38 10° N
Cosmos 2366 rocket 4.4 22:01:48 32° SE 22:04:04 43° E 22:10:00 10° NNE
Atlas Centaur 2 3.1 22:05:18 10° SW 22:06:28 15° SW 22:06:28 15° SW
USA 234 3.3 22:02:06 10° NE 22:08:27 52° SE 22:14:45 10° SSW
CZ-4B R/B 3.3 22:05:12 10° NNE 22:10:12 89° W 22:13:01 25° SSW
CZ-4 R/B 3.6 22:11:58 10° NNE 22:16:40 79° ESE 22:18:11 43° S
Cosmos 1184 Rocket 4.1 22:18:32 28° WSW 22:19:42 39° WNW 22:22:52 10° N
Okean 2 Rocket 3.6 22:22:51 27° SSW 22:25:05 55° W 22:29:26 10° N
Cosmos 1850 Rocket 4.0 22:19:54 10° NNW 22:25:13 72° ENE 22:26:29 51° SE
Cosmos 2218 Rocket 4.0 22:25:46 34° S 22:28:44 81° E 22:35:09 10° N
DMSP B5D2-2 4.2 22:23:46 10° NNE 22:28:51 51° E 22:29:16 50° ESE
IGS 5A 3.9 22:32:35 47° ENE 22:32:35 47° ENE 22:36:24 10° N
Meteor 1-20 Rocket 4.5 22:33:05 45° ESE 22:33:29 46° E 22:38:46 10° NNE
DELTA 2 DEB (DPAF) 4.0 22:36:15 75° SSE 22:36:39 88° ENE 22:41:08 10° NNW
SL-08 R/B 4.5 22:34:06 36° S 22:37:00 89° E 22:43:31 10° N
Meteor 1-25 Rocket 4.3 22:39:52 54° SE 22:40:55 65° E 22:46:42 10° NNE
Cosmos 1741 Rocket 3.9 22:39:07 10° NNW 22:44:21 79° WSW 22:45:10 63° S
ARGOS 3.8 22:42:39 34° SSW 22:44:32 48° W 22:49:44 10° NNW
Cosmos 1727 Rocket 3.9 22:40:29 10° N 22:46:40 77° E 22:48:04 55° SSE
Landsat 7 3.9 22:48:20 61° SW 22:48:54 68° WSW 22:53:39 10° NNW
COSMOS 2487 4.4 22:47:05 10° NW 22:49:57 24° W 22:49:57 24° W
Meteor 1-18 Rocket 4.2 22:46:55 10° N 22:52:50 83° E 22:53:54 62° SSE
USA 229 DEB 3.9 22:47:04 10° NNW 22:54:09 66° NE 22:56:15 46° ESE
USA 229 3.9 22:47:10 10° NNW 22:54:15 65° NE 22:56:21 46° ESE
Cosmos 1331 Rocket 4.4 22:58:07 48° ENE 22:58:07 48° ENE 23:02:19 10° NNE
ISS -0.9 22:57:38 10° W 23:05:23 - NE 22:59:03 20° WNW
CARTOSAT-1 3.8 23:01:47 63° WNW 23:01:47 63° WNW 23:05:46 10° NNW
DNEPR-1 R/B 4.1 22:56:42 10° NW 23:01:40 55° WSW 23:01:40 55° WSW
Cosmos 1110 Rocket 4.0 23:02:20 67° ENE 23:02:20 67° ENE 23:07:09 10° NNE
Cosmos 2278 Rocket 4.0 22:57:12 10° WSW 23:02:08 30° WNW 23:07:05 10° N
Timation 2 Rocket 4.2 22:57:51 10° NW 23:03:39 52° WSW 23:04:45 46° SW
Terra 1.9 23:04:36 68° WSW 23:04:39 68° W 23:09:24 10° NNW
Cosmos 1833 Rocket 2.5 23:00:17 10° NNW 23:05:56 79° ENE 23:06:17 75° ESE
Spot 4 3.8 23:08:31 82° WNW 23:08:31 82° WNW 23:13:16 10° NNW
Cosmos 1339 Rocket 4.4 23:07:50 10° N 23:13:59 78° W 23:14:57 64° SSW
Cosmos 1536 Rocket 4.2 23:09:51 10° NNW 23:13:54 50° WNW 23:13:54 50° WNW
H-2A R/B 2.7 23:15:18 45° WSW 23:15:58 48° W 23:21:09 10° NNW
Cosmos 1812 4.0 23:13:07 10° NNW 23:15:44 40° NNW 23:15:44 40° NNW
Lacrosse 5 4.1 23:22:40 14° ENE 23:22:40 14° ENE 23:23:22 10° ENE
ASTEX 1 3.4 23:13:59 10° N 23:18:38 77° NNW 23:18:38 77° NNW
Cosmos 1821 Rocket 4.2 23:21:38 54° E 23:21:38 54° E 23:27:37 10° NNE
Meteor 1-11 Rocket 4.0 23:22:41 56° ENE 23:22:41 56° ENE 23:27:58 10° NNE
Cosmos 2082 Rocket 2.4 23:17:20 10° NNW 23:22:55 59° WSW 23:23:06 58° WSW
Timation 1 Rocket 4.3 23:22:04 66° SW 23:22:55 81° WNW 23:28:58 10° NNE
Cosmos 1486 Rocket 4.4 23:21:08 10° N 23:26:01 54° NE 23:26:01 54° NE
Gbstr 26 Del rocket 4.5 23:27:06 10° NW 23:31:18 31° NNE 23:31:25 31° NNE
Cosmos 1934 Rocket 4.1 23:38:39 59° ENE 23:38:39 59° ENE 23:44:10 10° NNE
Cosmos 2123 Rocket 4.4 23:33:07 10° N 23:39:07 48° ENE 23:39:07 48° ENE
NOSS 3-1 (C) 4.4 23:36:29 10° NNW 23:43:57 57° NE 23:46:09 45° E
CZ-3 Stage 3 4.3 23:15:17 10° W 23:45:02 46° SSW 23:45:24 46° SSW
Meteor 2-21 Rocket 4.4 23:47:14 76° ENE 23:47:14 76° ENE 23:53:14 10° N
ALOS 2 4.2 23:49:23 29° NNE 23:49:23 29° NNE 23:52:03 10° N
USA 234 4.1 23:45:10 10° NE 23:51:22 47° NW 23:57:32 10° WSW
